Regional Weather Roundup
Issued by NWS Lake Charles, LA

Home | Current Version | Previous Version | Text Only | Print | Product List | Glossary On
Versions: 1 2 3 4 5 6 7 8 9 10 11 12 13 14 15 16 17 18 19 20 21 22 23 24 25 26 27 28 29 30 31 32 33 34 35 36 37 38 39 40 41 42 43 44 45 46 47 48 49
000
ASUS44 KLCH 041510
RWRLCH
RWRLCH
REGIONAL WEATHER ROUNDUP
NATIONAL WEATHER SERVICE LAKE CHARLES LA
1000 AM CDT MON MAY 04 2015

Note: "fair" indicates few or no clouds below 12,000 feet with no
significant weather and/or obstructions to visibility.


ACROSS SOUTHEAST TEXAS

CITY           SKY/WX    TMP DP  RH WIND       PRES   REMARKS
BEAUMONT       MOSUNNY   78  60  53 SE9       30.13R
BEAUMONT CITY    N/A     74  62  64 SE7       30.14R
ORANGE         MOSUNNY   75  61  61 E8        30.15R
JASPER         NOT AVBL
$$

ACROSS CENTRAL LOUISIANA

CITY           SKY/WX    TMP DP  RH WIND       PRES   REMARKS
LEESVILLE      NOT AVBL
FULLERTON        N/A     76  60  57 E5        30.15R
ALEXANDRIA INT SUNNY     74  59  59 SE9       30.17R
ESLER FIELD    SUNNY     75  60  59 E8        30.19R
DERIDDER         N/A     73  61  67 E6        30.19R
OAKDALE        SUNNY     74  61  63 SE6       30.18R
OPELOUSAS        N/A     74  60  61 E3        30.17R
$$

ACROSS SOUTHWEST AND SOUTH CENTRAL LOUISIANA

CITY           SKY/WX    TMP DP  RH WIND       PRES   REMARKS
SULPHUR        MOSUNNY   76  64  66 E8        30.16R
LAKE CHARLES   SUNNY     76  64  66 E10       30.15R
CHENNAULT INT  NOT AVBL
CAMERON PHI    MOSUNNY   75  63  64 SE12      30.17R
DEQUINCY         N/A     73  64  73 E6        30.16R
JENNINGS         N/A     74  62  66 E7        30.16R
LAFAYETTE      SUNNY     75  61  61 VRB6      30.16S
NEW IBERIA     SUNNY     77  62  59 NE6       30.17R
ABBEVILLE        N/A     75  62  63 E3        30.16S
PATTERSON      MOSUNNY  N/A N/A N/A NE9       30.16S
SALT POINT       N/A     76  65  68 VRB6      30.13S
$$

SELECTED SITES ACROSS THE REGION

CITY           SKY/WX    TMP DP  RH WIND       PRES   REMARKS
HOUSTON BUSH   MOSUNNY   76  65  68 SE7       30.11R
HOUSTON HOBBY  MOSUNNY   76  62  62 SE7       30.10R
GALVESTON      SUNNY     77  61  57 E10       30.11R
COLLEGE STAT   SUNNY     75  64  68 S13       30.11R
CONROE         SUNNY     75  61  61 SE7       30.12S
HUNTSVILLE     SUNNY     74  62  66 VRB6      30.12R
LUFKIN         SUNNY     76  63  64 SE7       30.15R
SHREVEPORT     MOSUNNY   75  62  64 S7        30.18R
MONROE         SUNNY     74  63  68 VRB3      30.22R
NATCHEZ MS     MOSUNNY   73  57  56 CALM      30.21S
BATON ROUGE    SUNNY     75  65  70 NE8       30.17S
N.O. INTL ARPT PTSUNNY   77  63  61 E9G16     30.17R
SLIDELL        PTSUNNY   78  65  63 SE10      30.18R
$$

MARINE REPORTS

STATION/POSITION TIME  TEMP    WIND        PRES    VSBY  WAVE
                       AIR SEA DIR/SP/G                  HT/PER
                 (UTC) (F)     (DEG/KT/KT) (MB)    (MI)  (FT/S)
BUOY 30 S HIGH I 1450   75 74  120/ 12/ 16 1019.2R         3/ 6
SEA RIM ST PARK  1500   76     130/ 10/ 13 1020.7R
PORT ARTHUR      1400      71  110/  5/  9 1019.9R
SABINE PASS N    1400   74 74  120/  9/ 13 1019.8R
TEXAS POINT      NOT AVBL
CALCASIEU PASS   1400   75 75  130/ 11/ 12   N/A
LK CHARLES BEACH 1400   71 71              1020.8R
MARSH ISLAND     1400   73      70/ 10/ 11   N/A           0
FRESH WATER LOCK 1400   74 77   80/  7/ 10 1020.3R
AMERADA PASS     1400   72 69   50/  4/  6 1020.5R
$$



USA.gov is the U.S. government's official web portal to all federal, state and local government web resources and services.